User: anonymous
Location: Alberta Star Party
(51.6612°N, 112.9089°W)
Time: 17:16:55
(UTC-06:00)
Language:

AO-Echo - Orbit

View from above orbital plane
View from above orbital plane
View from above satellite
View from above satellite

Ground track
Ground track

The orbit data is extracted from the following two-line orbital elements,

1 28375U 04025K   14210.06488430  .00000107  00000-0  44774-4 0  8972
2 28375 098.2524 155.5550 0082371 225.0862 134.3624 14.41405205529936
Epoch (UTC): 29 July 2014 01:33:26
Eccentricity: 0.0082371
inclination: 98.2524°
perigee height: 695 km
apogee height: 812 km
right ascension of ascending node: 155.5550°
argument of perigee: 225.0862°
revolutions per day: 14.41405205
mean anomaly at epoch: 134.3624°
orbit number at epoch: 52993

The dashed part of the orbit path shows where the satellite is in the earth's shadow,  

DLR